EW2493 Weather Reports


Display with metric or nautical units.
time (UTC)temp
F
wind
direction
speed
MPH
gust
MPH
rain 1hr
in
rain 24hr
in
rain mn
in
humidity
%
barometer
mb
20260504001611 71 251 2.0 12.0 0.00 0.00 0.00 28 995.9
20260504000155 72 249 5.0 12.0 0.00 0.00 0.00 27 996.2
20260503234553 72 307 8.0 16.0 0.00 0.00 0.00 26 996.6
20260503233051 72 265 7.0 19.0 0.00 0.00 0.00 25 996.8
20260503231554 73 314 7.0 14.0 0.00 0.00 0.00 23 996.9
20260503230048 73 259 8.0 18.0 0.00 0.00 0.00 23 997.0
20260503224550 72 287 11.0 19.0 0.00 0.00 0.00 23 997.3
20260503223045 73 282 10.0 18.0 0.00 0.00 0.00 21 997.5
20260503221543 72 282 7.0 23.0 0.00 0.00 0.00 25 997.6
20260503220041 73 301 9.0 20.0 0.00 0.00 0.00 22 998.0
20260503214544 72 261 6.0 21.0 0.00 0.00 0.00 23 998.2
20260503213052 72 293 11.0 17.0 0.00 0.00 0.00 25 998.7
20260503211542 72 291 10.0 18.0 0.00 0.00 0.00 25 999.0
20260503210028 71 242 12.0 21.0 0.00 0.00 0.00 27 999.2
20260503204539 71 299 9.0 19.0 0.00 0.00 0.00 25 999.6
20260503203025 71 310 13.0 20.0 0.00 0.00 0.00 25 999.9
20260503201525 70 300 10.0 18.0 0.00 0.00 0.00 28 1000.2
20260503200019 70 244 7.0 21.0 0.00 0.00 0.00 28 1000.6
20260503194522 69 308 8.0 19.0 0.00 0.00 0.00 29 1000.9
20260503193015 69 325 6.0 14.0 0.00 0.00 0.00 28 1001.3
20260503191512 68 297 10.0 16.0 0.00 0.00 0.00 30 1001.5
20260503190011 68 325 10.0 16.0 0.00 0.00 0.00 30 1001.8
20260503184508 68 295 7.0 16.0 0.00 0.00 0.00 30 1002.1
20260503183006 67 292 3.0 12.0 0.00 0.00 0.00 34 1002.4
20260503181506 67 321 5.0 17.0 0.00 0.00 0.00 33 1002.5
20260503180005 66 347 7.0 12.0 0.00 0.00 0.00 34 1002.9
20260503173131 65 348 10.0 19.0 0.00 0.00 0.00 34 1003.5
20260503171557 65 301 10.0 17.0 0.00 0.00 0.00 34 1003.7
20260503081545 44 326 3.0 7.0 0.00 0.00 0.00 77 1003.6
20260503071550 44 321 4.0 8.0 0.00 0.00 0.00 79 1003.4
20260503054512 51 336 6.0 8.0 0.00 0.00 0.00 66 1002.7
20260503053003 52 348 7.0 12.0 0.00 0.00 0.00 63 1002.4
20260503051600 53 344 8.0 11.0 0.00 0.00 0.00 62 1002.2
20260503044556 52 333 6.0 11.0 0.00 0.00 0.00 62 1001.9
20260503043057 53 334 8.0 12.0 0.00 0.00 0.00 62 1001.7
20260503041654 51 312 8.0 11.0 0.00 0.00 0.00 63 1001.5
20260503040055 52 304 9.0 14.0 0.00 0.00 0.00 62 1001.5
20260503034555 52 306 8.0 10.0 0.00 0.00 0.00 61 1001.2
20260503033058 52 299 7.0 10.0 0.00 0.00 0.00 58 1001.1
20260503031551 54 296 8.0 11.0 0.00 0.00 0.00 55 1001.0
20260503030051 56 308 8.0 10.0 0.00 0.00 0.00 51 1001.0
20260503024553 56 309 7.0 10.0 0.00 0.00 0.00 50 1001.0
20260503023050 57 309 8.0 11.0 0.00 0.00 0.00 48 1000.9
20260503021552 58 317 7.0 11.0 0.00 0.00 0.00 46 1000.6
20260503020048 60 310 8.0 11.0 0.00 0.00 0.00 44 1000.5
20260503014601 62 320 9.0 15.0 0.00 0.00 0.00 39 1000.3
20260503013047 65 315 13.0 17.0 0.00 0.00 0.00 37 1000.2
20260503011556 66 310 12.0 19.0 0.00 0.00 0.00 36 1000.1
20260503010044 68 316 10.0 16.0 0.00 0.00 0.00 35 999.9
20260503004544 70 311 10.0 19.0 0.00 0.00 0.00 34 999.7
20260503003044 72 303 15.0 23.0 0.00 0.00 0.00 32 999.6